Content
SEND FEEDBACK

Daily
Averages
Monthly
Summary
United States of America

ROCKSPRINGS - NORTHEAST, TEXAS


Home > North America > United States > Texas
Elevation: 655 meters     Latitude: 30 11N     Longitude: 100 02W

WEATHER
 
SELECT A DAY
Number of Records: 223,677;   Date Range: 11/11/04 - 8/12/14
 
SHARE

PRINT THIS DATA

[ ← Previous Day ]
WEATHER ALMANAC - 13 FEBRUARY, 2013
[ Next Day → ]
[ °F ]   °C
Weather ElementAverageHighLow
Temperature8.4 °C17 °C (4:55 pm)1 °C (5:15 am)
Dewpoint-5.6 °C0 °C (8:35 am)-11 °C (4:35 pm)
Humidity45.7 %87 % (5:15 am)15 % (4:35 pm)
Barometer1019.3 hPa1021.7 hPa (9:15 am)1016.9 hPa (3:55 pm)
Wind Speed5.6 km/h16.7 km/h (3:55 pm)
Weather ElementAverage
Visibility16.1 km
Wind DirectionSSE (165.3 °)

Weather ElementTotal
Precipitation---
Heating Degree Days9.3 (Base 18.3)
Averaged from 68 records on 13 February, 2013
WEATHER CONDITIONS BREAKOUT
WIND DIRECTION BREAKOUT
WEATHER BY HOUR - 13 FEBRUARY, 2013
[ °F ]   °C
Local TimeTemperatureDewpointHumidityBarometerVisibilityWind DirectionWind SpeedGust SpeedPrecipitationEventsConditions
12:35 AM4 °C-1 °C70 %1019.6 hPa16.1 kmNorth (350°)14.8 km/hClear
1:15 AM4 °C-1 °C70 %1019.3 hPa16.1 kmNNW (340°)14.8 km/hClear
1:35 AM4 °C-1 °C70 %1019.6 hPa16.1 kmNorth (360°)13 km/hClear
1:55 AM3 °C-1 °C75 %1020 hPa16.1 kmNorth (10°)7.4 km/hClear
2:15 AM3 °C-1 °C75 %1020.3 hPa16.1 kmNorth (10°)7.4 km/hClear
2:35 AM3 °C-1 °C75 %1020 hPa16.1 kmCalmClear
2:55 AM3 °C-1 °C75 %1020 hPa16.1 kmNorth (350°)7.4 km/hClear
3:15 AM3 °C-1 °C75 %1020 hPa16.1 kmNorth (350°)9.3 km/hClear
3:35 AM2 °C-1 °C81 %1020 hPa16.1 kmNorth (360°)11.1 km/hClear
3:55 AM2 °C-1 °C81 %1020 hPa16.1 kmNorth (360°)9.3 km/hClear
4:15 AM2 °C-1 °C81 %1020 hPa16.1 kmNorth (10°)9.3 km/hClear
4:35 AM2 °C-1 °C81 %1019.6 hPa16.1 kmNorth (360°)11.1 km/hClear
4:55 AM2 °C-1 °C81 %1019.6 hPa16.1 kmNorth (10°)9.3 km/hClear
5:15 AM1 °C-1 °C87 %1019.6 hPa16.1 kmNorth (360°)11.1 km/hClear
5:35 AM1 °C-1 °C87 %1020 hPa16.1 kmCalmClear
5:55 AM1 °C-1 °C87 %1020 hPa16.1 kmCalmClear
6:15 AM1 °C-1 °C87 %1020 hPa16.1 kmNorth (360°)7.4 km/hClear
6:35 AM1 °C-1 °C87 %1020.3 hPa16.1 kmCalmClear
6:55 AM1 °C-1 °C87 %1020.7 hPa16.1 kmNorth (360°)9.3 km/hClear
7:15 AM1 °C-1 °C87 %1020.7 hPa16.1 kmNorth (350°)5.6 km/hClear
7:35 AM1 °C-1 °C87 %1021 hPa16.1 kmNorth (350°)9.3 km/hClear
7:55 AM1 °C-1 °C87 %1021 hPa16.1 kmNNW (340°)11.1 km/hClear
8:15 AM2 °C-1 °C81 %1021.3 hPa16.1 kmNNW (340°)5.6 km/hClear
8:35 AM3 °C0 °C81 %1021.3 hPa16.1 kmNorth (360°)9.3 km/hClear
8:55 AM4 °C0 °C75 %1021.3 hPa16.1 kmNNW (340°)9.3 km/hClear
9:15 AM6 °C-1 °C61 %1021.7 hPa16.1 kmNNW (340°)13 km/hClear
9:35 AM7 °C-1 °C57 %1021.7 hPa16.1 kmNNW (340°)13 km/hClear
10:15 AM8 °C-1 °C53 %1021.7 hPa16.1 kmNNW (340°)13 km/hClear
10:35 AM9 °C-2 °C46 %1021.7 hPa16.1 kmNorth (350°)14.8 km/hClear
10:55 AM10 °C-2 °C43 %1021.3 hPa16.1 kmNorth (350°)13 km/hClear
11:15 AM11 °C-3 °C38 %1021.3 hPa16.1 kmNNW (330°)9.3 km/hClear
11:35 AM12 °C-5 °C30 %1021.3 hPaNNW (340°)9.3 km/hClear
11:55 AM12 °C-5 °C30 %1021 hPa16.1 kmCalmClear
12:15 PM13 °C-7 °C25 %1020.7 hPa16.1 kmNNW (340°)9.3 km/hClear
12:35 PM13 °C-7 °C25 %1020.7 hPa16.1 kmWNW (300°)7.4 km/hClear
12:55 PM14 °C-7 °C23 %1020.3 hPa16.1 kmNW (310°)9.3 km/hClear
1:15 PM14 °C-8 °C21 %1020 hPa16.1 kmCalmClear
1:35 PM14 °C-10 °C18 %1019.3 hPa16.1 kmCalmClear
1:55 PM15 °C-9 °C19 %1019 hPa16.1 kmWest (280°)11.1 km/hClear
2:15 PM14 °C-10 °C18 %1018.3 hPa16.1 kmWest (280°)11.1 km/hClear
2:35 PM15 °C-10 °C17 %1017.9 hPaNNW (330°)7.4 km/hClear
2:55 PM16 °C-9 °C17 %1017.9 hPa16.1 kmCalmClear
3:15 PM16 °C-9 °C17 %1017.6 hPa16.1 kmNW (320°)9.3 km/hClear
3:35 PM16 °C-10 °C16 %1017.3 hPa16.1 kmCalmClear
3:55 PM16 °C-10 °C16 %1016.9 hPa16.1 kmWest (280°)16.7 km/hClear
4:15 PM16 °C-10 °C16 %1016.9 hPa16.1 kmCalmClear
4:35 PM16 °C-11 °C15 %1016.9 hPa16.1 kmCalmClear
4:55 PM17 °C-10 °C15 %1016.9 hPa16.1 kmCalmClear
5:15 PM16 °C-11 °C15 %1016.9 hPa16.1 kmWest (270°)7.4 km/hClear
5:35 PM16 °C-11 °C15 %1016.9 hPa16.1 kmCalmClear
5:55 PM16 °C-11 °C15 %1016.9 hPa16.1 kmCalmClear
6:15 PM16 °C-10 °C16 %1016.9 hPa16.1 kmCalmClear
6:35 PM14 °C-9 °C20 %1016.9 hPa16.1 kmCalmClear
6:55 PM12 °C-10 °C21 %1017.3 hPa16.1 kmCalmClear
7:15 PM11 °C-10 °C22 %1017.3 hPa16.1 kmCalmClear
7:35 PM11 °C-10 °C22 %1017.3 hPa16.1 kmCalmClear
7:55 PM10 °C-10 °C24 %1017.6 hPa16.1 kmCalmClear
8:15 PM10 °C-10 °C24 %1017.9 hPa16.1 kmCalmClear
8:35 PM9 °C-10 °C25 %1017.9 hPa16.1 kmCalmClear
8:55 PM9 °C-10 °C25 %1017.9 hPa16.1 kmCalmClear
9:15 PM9 °C-10 °C25 %1018.3 hPa16.1 kmCalmClear
9:35 PM10 °C-10 °C24 %1018.6 hPa16.1 kmCalmClear
10:15 PM9 °C-10 °C25 %1018.6 hPa16.1 kmCalmClear
10:35 PM9 °C-10 °C25 %1018.6 hPa16.1 kmCalmClear
10:55 PM8 °C-10 °C27 %1018.6 hPa16.1 kmCalmClear
11:15 PM8 °C-10 °C27 %1018.6 hPa16.1 kmCalmClear
11:35 PM8 °C-8 °C32 %1018.6 hPa16.1 kmESE (110°)5.6 km/hClear
11:55 PM7 °C-8 °C34 %1018.6 hPa16.1 kmCalmClear
Hourly data recorded from KECU, located 0 kilometers away from Rocksprings - Northeast, Texas







STORIES FROM OUR PARTNERS